When you browse on this site, cookies collect data to enhance your experience and personalize the content and advertising you see.
Visit our Privacy Policy to learn more. By continuing to use the site, you agree to this use of cookies and data.

Meteo orario Halushchyntsi

Oggi, 6 Luglio, Lunedi

Tempo Temperatura Precipitazioni Vento Pressione Umidità
00:00 +17°C° 0 mm 0 m/s 730 mm Hg 88%
01:00 +17°C° 0 mm 0 m/s 730 mm Hg 88%
02:00 +19°C° 0 mm 1 m/s 730 mm Hg 90%
03:00 +19°C° 0 mm 1 m/s 730 mm Hg 91%
04:00 +19°C° 0 mm 1 m/s 729 mm Hg 91%
05:00 +18°C° 0 mm 1 m/s 729 mm Hg 92%
06:00 +20°C° 0 mm 1 m/s 729 mm Hg 88%
07:00 +21°C° 0 mm 2 m/s 729 mm Hg 85%
08:00 +23°C° 0 mm 2 m/s 729 mm Hg 81%
09:00 +24°C° 0 mm 2 m/s 729 mm Hg 77%
10:00 +25°C° 0 mm 2 m/s 729 mm Hg 73%
11:00 +26°C° 0 mm 3 m/s 729 mm Hg 69%
12:00 +27°C° 0 mm 3 m/s 728 mm Hg 67%
13:00 +27°C° 0 mm 3 m/s 728 mm Hg 65%
14:00 +28°C° 0 mm 2 m/s 728 mm Hg 62%
15:00 +28°C° 0 mm 2 m/s 727 mm Hg 64%
16:00 +28°C° 0 mm 2 m/s 727 mm Hg 66%
17:00 +27°C° 0 mm 2 m/s 726 mm Hg 67%
18:00 +26°C° 0 mm 2 m/s 726 mm Hg 72%
19:00 +25°C° 0 mm 2 m/s 726 mm Hg 76%
20:00 +23°C° 0 mm 1 m/s 726 mm Hg 81%
21:00 +22°C° 0.2 mm 1 m/s 726 mm Hg 83%
22:00 +21°C° 0.2 mm 1 m/s 726 mm Hg 85%
23:00 +19°C° 0.2 mm 0 m/s 726 mm Hg 86%

Domani, 7 Luglio, Martedi

Tempo Temperatura Precipitazioni Vento Pressione Umidità
00:00 +19°C° 0.6 mm 2 m/s 726 mm Hg 89%
01:00 +19°C° 0.6 mm 4 m/s 726 mm Hg 92%
02:00 +17°C° 0.6 mm 5 m/s 726 mm Hg 95%
03:00 +16°C° 0.3 mm 6 m/s 726 mm Hg 94%
04:00 +15°C° 0.3 mm 7 m/s 727 mm Hg 94%
05:00 +12°C° 0.3 mm 8 m/s 727 mm Hg 93%
06:00 +12°C° 0.1 mm 7 m/s 727 mm Hg 92%
07:00 +12°C° 0.1 mm 7 m/s 728 mm Hg 91%
08:00 +12°C° 0.1 mm 7 m/s 728 mm Hg 90%
09:00 +12°C° 0.2 mm 7 m/s 728 mm Hg 91%
10:00 +12°C° 0.2 mm 7 m/s 729 mm Hg 91%
11:00 +11°C° 0.2 mm 7 m/s 729 mm Hg 91%
12:00 +11°C° 0.7 mm 7 m/s 729 mm Hg 91%
13:00 +11°C° 0.7 mm 6 m/s 729 mm Hg 92%
14:00 +10°C° 0.7 mm 5 m/s 730 mm Hg 92%
15:00 +12°C° 0.1 mm 4 m/s 730 mm Hg 90%
16:00 +13°C° 0.1 mm 4 m/s 730 mm Hg 88%
17:00 +13°C° 0.1 mm 3 m/s 730 mm Hg 86%
18:00 +13°C° 0.1 mm 3 m/s 730 mm Hg 88%
19:00 +13°C° 0.1 mm 3 m/s 730 mm Hg 90%
20:00 +13°C° 0.1 mm 3 m/s 730 mm Hg 91%
21:00 +12°C° 0 mm 3 m/s 731 mm Hg 92%
22:00 +11°C° 0 mm 3 m/s 731 mm Hg 93%
23:00 +11°C° 0 mm 3 m/s 732 mm Hg 94%

Dopodomani, 8 Luglio, Mercoledi

Tempo Temperatura Precipitazioni Vento Pressione Umidità
00:00 +10°C° 0 mm 3 m/s 732 mm Hg 94%
01:00 +10°C° 0 mm 3 m/s 732 mm Hg 94%
02:00 +9°C° 0 mm 3 m/s 732 mm Hg 95%
03:00 +9°C° 0 mm 3 m/s 732 mm Hg 95%
04:00 +9°C° 0 mm 3 m/s 732 mm Hg 95%
05:00 +9°C° 0 mm 3 m/s 732 mm Hg 95%
06:00 +10°C° 0 mm 3 m/s 732 mm Hg 89%
07:00 +12°C° 0 mm 4 m/s 733 mm Hg 83%
08:00 +14°C° 0 mm 4 m/s 733 mm Hg 77%
09:00 +15°C° 0 mm 4 m/s 733 mm Hg 73%
10:00 +17°C° 0 mm 4 m/s 733 mm Hg 69%
11:00 +18°C° 0 mm 4 m/s 733 mm Hg 65%
12:00 +18°C° 0 mm 4 m/s 733 mm Hg 65%
13:00 +19°C° 0 mm 4 m/s 733 mm Hg 64%
14:00 +20°C° 0 mm 4 m/s 733 mm Hg 64%
15:00 +20°C° 0.1 mm 4 m/s 733 mm Hg 65%
16:00 +20°C° 0.1 mm 3 m/s 732 mm Hg 67%
17:00 +20°C° 0.1 mm 3 m/s 732 mm Hg 68%
18:00 +18°C° 0.1 mm 2 m/s 732 mm Hg 73%
19:00 +18°C° 0.1 mm 1 m/s 732 mm Hg 78%
20:00 +16°C° 0.1 mm 1 m/s 732 mm Hg 83%
21:00 +16°C° 0 mm 1 m/s 732 mm Hg 83%
22:00 +16°C° 0 mm 1 m/s 733 mm Hg 82%
23:00 +16°C° 0 mm 2 m/s 733 mm Hg 82%

9 Luglio, Giovedi

Tempo Temperatura Precipitazioni Vento Pressione Umidità
00:00 +15°C° 0.6 mm 2 m/s 733 mm Hg 86%
01:00 +15°C° 0.6 mm 2 m/s 733 mm Hg 90%
02:00 +14°C° 0.6 mm 2 m/s 733 mm Hg 95%
03:00 +14°C° 0.8 mm 2 m/s 733 mm Hg 95%
04:00 +14°C° 0.8 mm 2 m/s 733 mm Hg 96%
05:00 +13°C° 0.8 mm 2 m/s 733 mm Hg 97%
06:00 +14°C° 0.2 mm 2 m/s 733 mm Hg 95%
07:00 +14°C° 0.2 mm 2 m/s 734 mm Hg 93%
08:00 +13°C° 0.2 mm 3 m/s 734 mm Hg 92%
09:00 +16°C° 0 mm 3 m/s 734 mm Hg 85%
10:00 +17°C° 0 mm 3 m/s 735 mm Hg 79%
11:00 +19°C° 0 mm 3 m/s 735 mm Hg 72%
12:00 +19°C° 0.2 mm 3 m/s 735 mm Hg 72%
13:00 +19°C° 0.2 mm 3 m/s 735 mm Hg 71%
14:00 +20°C° 0.2 mm 4 m/s 735 mm Hg 71%
15:00 +20°C° 0.1 mm 3 m/s 735 mm Hg 70%
16:00 +20°C° 0.1 mm 3 m/s 735 mm Hg 70%
17:00 +20°C° 0.1 mm 3 m/s 735 mm Hg 70%
18:00 +19°C° 0 mm 2 m/s 735 mm Hg 74%
19:00 +17°C° 0 mm 2 m/s 735 mm Hg 78%
20:00 +16°C° 0 mm 1 m/s 735 mm Hg 82%
21:00 +15°C° 0 mm 1 m/s 735 mm Hg 84%
22:00 +14°C° 0 mm 1 m/s 735 mm Hg 85%
23:00 +12°C° 0 mm 0 m/s 735 mm Hg 87%

10 Luglio, Venerdi

Tempo Temperatura Precipitazioni Vento Pressione Umidità
00:00 +12°C° 0 mm 0 m/s 735 mm Hg 87%
01:00 +12°C° 0 mm 0 m/s 735 mm Hg 88%
02:00 +13°C° 0 mm 1 m/s 735 mm Hg 89%
03:00 +13°C° 0 mm 1 m/s 735 mm Hg 89%
04:00 +13°C° 0 mm 1 m/s 735 mm Hg 90%
05:00 +13°C° 0 mm 1 m/s 735 mm Hg 90%
06:00 +15°C° 0 mm 2 m/s 735 mm Hg 87%
07:00 +16°C° 0 mm 2 m/s 736 mm Hg 84%
08:00 +18°C° 0 mm 3 m/s 736 mm Hg 81%
09:00 +19°C° 0 mm 3 m/s 736 mm Hg 78%
10:00 +20°C° 0 mm 4 m/s 736 mm Hg 75%
11:00 +21°C° 0 mm 4 m/s 736 mm Hg 73%
12:00 +22°C° 0 mm 4 m/s 735 mm Hg 71%
13:00 +23°C° 0 mm 4 m/s 735 mm Hg 70%
14:00 +23°C° 0 mm 4 m/s 735 mm Hg 68%
15:00 +23°C° 0 mm 4 m/s 735 mm Hg 69%
16:00 +23°C° 0 mm 4 m/s 734 mm Hg 69%
17:00 +23°C° 0 mm 4 m/s 734 mm Hg 70%
18:00 +22°C° 0 mm 4 m/s 734 mm Hg 75%
19:00 +21°C° 0 mm 4 m/s 734 mm Hg 80%
20:00 +19°C° 0 mm 3 m/s 734 mm Hg 85%
21:00 +19°C° 0 mm 3 m/s 734 mm Hg 85%
22:00 +18°C° 0 mm 4 m/s 734 mm Hg 86%
23:00 +17°C° 0 mm 4 m/s 734 mm Hg 87%

11 Luglio, Sabato

Tempo Temperatura Precipitazioni Vento Pressione Umidità
00:00 +17°C° 0 mm 4 m/s 734 mm Hg 87%
01:00 +17°C° 0 mm 4 m/s 733 mm Hg 87%
02:00 +17°C° 0 mm 4 m/s 733 mm Hg 87%
03:00 +15°C° 0 mm 4 m/s 733 mm Hg 87%
04:00 +15°C° 0 mm 4 m/s 733 mm Hg 88%
05:00 +15°C° 0 mm 4 m/s 733 mm Hg 89%
06:00 +17°C° 0 mm 4 m/s 733 mm Hg 88%
07:00 +19°C° 0 mm 5 m/s 733 mm Hg 87%
08:00 +20°C° 0 mm 5 m/s 733 mm Hg 85%
09:00 +22°C° 0 mm 5 m/s 733 mm Hg 83%
10:00 +23°C° 0 mm 5 m/s 733 mm Hg 81%
11:00 +25°C° 0 mm 5 m/s 733 mm Hg 78%
12:00 +26°C° 0.4 mm 5 m/s 733 mm Hg 77%
13:00 +27°C° 0.4 mm 5 m/s 733 mm Hg 75%
14:00 +27°C° 0.4 mm 5 m/s 732 mm Hg 73%
15:00 +27°C° 0.4 mm 5 m/s 732 mm Hg 75%
16:00 +27°C° 0.4 mm 5 m/s 732 mm Hg 76%
17:00 +26°C° 0.4 mm 5 m/s 732 mm Hg 78%
18:00 +25°C° 0.3 mm 4 m/s 732 mm Hg 81%
19:00 +23°C° 0.3 mm 4 m/s 731 mm Hg 84%
20:00 +22°C° 0.3 mm 3 m/s 731 mm Hg 87%
21:00 +21°C° 0.2 mm 3 m/s 732 mm Hg 87%
22:00 +20°C° 0.2 mm 3 m/s 732 mm Hg 88%
23:00 +19°C° 0.2 mm 3 m/s 732 mm Hg 89%
Mostrare altro